Weather History for Aspen, CO

Change the Weather History Date:

Sunday, March 24, 2013

  Actual Average Record
Temperature  
Mean Temperature 11 °F 34 °F  
Max Temperature 22 °F 46 °F 66 °F (2012)
Min Temperature -1 °F 22 °F -1 °F (2013)
Degree Days  
Heating Degree Days 54 31  
Month to date heating degree days 850 844  
Since 1 July heating degree days 6866 7163  
Cooling Degree Days 0 0  
Month to date cooling degree days 0 0  
Year to date cooling degree days 0 0  
Moisture  
Dew Point 1 °F    
Average Humidity 63    
Maximum Humidity 80    
Minimum Humidity 45    
Precipitation  
Precipitation T in 0.05 in 0.27 in (2007)
Month to date precipitation 1.06 0.96  
Year to date precipitation 2.21 3.20  
Sea Level Pressure  
Sea Level Pressure 30.14 in    
Wind  
Wind Speed 8 mph (West)    
Max Wind Speed 24 mph    
Max Gust Speed 30 mph    
Visibility 8 miles    
Events Snow    
T = Trace of Precipitation, MM = Missing Value Source: NWS Daily Summary

Daily Weather History Graph

Daily Weather History Graph

Search for Another Location

Airport:

Trip Planner

Search our weather history database for the weather conditions in past years. The results will help you decide how hot, cold, wet, or windy it might be!

Date:

Astronomy

Mar. 24, 2013 Rise Set
Actual Time 7:04 AM MDT 7:23 PM MDT
Civil Twilight 6:37 AM MDT 7:50 PM MDT
Nautical Twilight 6:05 AM MDT 8:22 PM MDT
Astronomical Twilight 5:33 AM MDT 8:54 PM MDT
Moon 4:55 PM MDT (3/24) 5:15 AM MDT (3/24)
Length of Visible Light 13h 13m
Length of Day
12h 19m
Waxing Gibbous, 92% of the Moon is Illuminated
Mar 24
Waxing Gibbous
Mar 27
Full
Apr 2
Last Quarter
Apr 10
New
Apr 18
First Quarter

Hourly Weather History & Observations

Time (MDT) Temp. Windchill Dew Point Humidity Pressure Visibility Wind Dir Wind Speed Gust Speed Precip Events Conditions
12:53 AM 6.1 °F -6.8 °F -2.0 °F 69% 30.17 in 10.0 mi SSW 8.1 mph - N/A   Mostly Cloudy
1:53 AM 3.0 °F -11.5 °F -4.0 °F 73% 30.18 in 10.0 mi South 9.2 mph - N/A   Partly Cloudy
2:53 AM 1.9 °F -10.6 °F -5.1 °F 72% 30.19 in 10.0 mi SSW 6.9 mph - N/A   Partly Cloudy
3:53 AM 3.0 °F -11.5 °F -7.1 °F 63% 30.16 in 10.0 mi SSW 9.2 mph - N/A   Partly Cloudy
4:53 AM 1.0 °F -12.9 °F -7.1 °F 69% 30.15 in 10.0 mi SSW 8.1 mph - N/A   Clear
5:53 AM 3.0 °F -6.4 °F -6.0 °F 66% 30.18 in 10.0 mi SSW 4.6 mph - N/A   Overcast
6:53 AM 3.9 °F -5.3 °F -4.0 °F 70% 30.17 in 4.0 mi SW 4.6 mph - N/A   Overcast
7:48 AM 6.8 °F - -2.2 °F 67% 30.01 in 4.0 mi Calm Calm - N/A   Haze
7:53 AM 6.1 °F - -2.9 °F 67% 30.16 in 4.0 mi Calm Calm - N/A   Haze
8:35 AM 8.6 °F - 1.4 °F 73% 30.01 in 2.0 mi Calm Calm - N/A   Haze
8:53 AM 8.1 °F - 3.0 °F 80% 30.17 in 1.5 mi Calm Calm - N/A   Haze
9:53 AM 12.9 °F - 5.0 °F 71% 30.15 in 7.0 mi Calm Calm - 0.00 in   Scattered Clouds
10:53 AM 16.0 °F 6.3 °F 5.0 °F 62% 30.14 in 7.0 mi North 6.9 mph - N/A   Mostly Cloudy
11:04 AM 15.8 °F 10.2 °F 5.0 °F 62% 30.00 in 6.0 mi Variable 3.5 mph - 0.00 in Snow Light Snow
11:53 AM 17.1 °F 4.3 °F 5.0 °F 59% 30.16 in 6.0 mi NW 11.5 mph - 0.00 in   Haze
12:53 PM 19.9 °F 6.7 °F 3.0 °F 48% 30.11 in 10.0 mi NNW 13.8 mph 21.9 mph 0.00 in   Mostly Cloudy
1:53 PM 19.9 °F 6.7 °F 1.9 °F 46% 30.10 in 8.0 mi NNW 13.8 mph 23.0 mph 0.00 in   Overcast
2:19 PM 19.4 °F 3.6 °F 8.6 °F 63% 29.96 in 1.5 mi North 19.6 mph 26.5 mph 0.00 in   Overcast
2:25 PM 19.4 °F 5.5 °F 12.2 °F 74% 29.96 in 6.0 mi North 15.0 mph 26.5 mph 0.00 in Snow Light Snow
2:53 PM 21.0 °F 8.1 °F 6.1 °F 53% 30.09 in 10.0 mi North 13.8 mph 23.0 mph 0.00 in   Mostly Cloudy
3:45 PM 19.4 °F 3.6 °F 8.6 °F 63% 29.96 in 6.0 mi NW 19.6 mph 29.9 mph 0.00 in Snow Light Snow
3:53 PM 21.0 °F 9.3 °F 8.1 °F 57% 30.11 in 8.0 mi NNW 11.5 mph 23.0 mph 0.00 in Snow Light Snow
4:53 PM 19.9 °F 5.7 °F -0.0 °F 42% 30.14 in 8.0 mi NNW 16.1 mph 24.2 mph 0.00 in   Overcast
5:53 PM 18.0 °F 4.2 °F 3.0 °F 52% 30.17 in 10.0 mi NW 13.8 mph 21.9 mph N/A   Mostly Cloudy
6:53 PM 17.1 °F 10.0 °F 6.1 °F 62% 30.19 in 10.0 mi North 4.6 mph - 0.00 in   Scattered Clouds
7:53 PM 16.0 °F 8.8 °F -0.9 °F 47% 30.21 in 10.0 mi NNW 4.6 mph - N/A   Partly Cloudy
8:53 PM 8.1 °F -3.2 °F -2.9 °F 61% 30.27 in 10.0 mi SSW 6.9 mph - N/A   Clear
9:53 PM 5.0 °F -9.1 °F -4.0 °F 66% 30.27 in 10.0 mi SSW 9.2 mph - N/A   Clear
10:53 PM 6.1 °F -7.8 °F -4.0 °F 63% 30.26 in 10.0 mi SSW 9.2 mph - N/A   Clear
11:53 PM 3.0 °F -9.3 °F -6.0 °F 66% 30.29 in 10.0 mi SSW 6.9 mph - N/A   Clear